This demonstration page uses our WeatherBlox Daily Observations layout. Learn more.

Left ArrowRight Arrow

44.8408, -93.29828

Hourly Observations for September 4, 2017

Temp ( °F °C ) Dew Point ( °F °C ) Humidity (%) Winds ( mph kmh ) Pressure ( in mb ) Visibility ( mi km ) Precip ( " mm )
12:53 am 00:53 Clear 74 23.3 68 20 82 82 WSW 9 15 29.69 1006 10 16 0.00 0.00
1:53 am 01:53 Clear 73 22.8 68 20 84 84 W 8 13 29.69 1005 9 14 0.00 0.00
2:23 am 02:23 Mostly Cloudy 72 22.2 68 20 87 87 WNW 6 9 29.68 1005 9 14 0.00 0.00
2:53 am 02:53 Mostly Cloudy 72 22.2 69 20.6 91 91 NNW 14 22 29.70 1006 9 14 0.00 0.00
3:53 am 03:53 Mostly Cloudy 71 21.7 58 14.4 63 63 NNE 20 31 29.72 1007 10 16 0.00 0.00
4:00 am 04:00 Clear 70 21.1 57 13.9 64 64 NNE 15 24 29.71 1006 10 16 0.00 0.00
4:53 am 04:53 Clear 68 20 53 11.7 59 59 NNE 16 26 29.76 1008 10 16 0.00 0.00
5:53 am 05:53 Clear 65 18.3 53 11.7 66 66 N 10 17 29.78 1008 10 16 0.00 0.00
6:53 am 06:53 Mostly Cloudy 63 17.2 55 12.8 76 76 NNW 10 17 29.82 1010 10 16 0.00 0.00
7:53 am 07:53 Partly Cloudy 63 17.2 56 13.3 78 78 NNW 9 15 29.85 1011 10 16 0.00 0.00
8:53 am 08:53 Partly Cloudy 64 17.8 54 12.2 70 70 N 13 20 29.85 1011 10 16 0.00 0.00
9:53 am 09:53 Mostly Sunny 68 20 54 12.2 61 61 NNW 9 15 29.87 1012 8 13 0.00 0.00
10:53 am 10:53 Mostly Sunny 70 21.1 52 11.1 53 53 NW 14 22 29.87 1012 8 13 0.00 0.00
11:53 am 11:53 Mostly Sunny 72 22.2 50 10 46 46 NW 15 24 29.86 1011 8 13 0.00 0.00
12:53 pm 12:53 Mostly Sunny 74 23.3 50 10 43 43 NW 17 28 29.85 1011 8 13 0.00 0.00
1:53 pm 13:53 Partly Cloudy 75 23.9 52 11.1 45 45 NW 14 22 29.83 1010 10 16 0.00 0.00
2:53 pm 14:53 Mostly Cloudy 75 23.9 49 9.4 40 40 NNW 17 28 29.82 1010 10 16 0.00 0.00
3:53 pm 15:53 Mostly Cloudy with Light Rain 71 21.7 51 10.6 49 49 NW 16 26 29.82 1010 10 16 0.00 0.03
4:37 pm 16:37 Mostly Cloudy 66 18.9 48 8.9 52 52 N 33 54 29.88 1012 10 16 0.00 0.03
4:42 pm 16:42 Partly Cloudy 64 17.8 48 8.9 56 56 NNW 28 44 29.88 1012 9 14 0.00 0.03
4:53 pm 16:53 Mostly Cloudy with Rain 58 14.4 52 11.1 81 81 N 22 35 29.88 1012 6 10 0.01 0.25
5:17 pm 17:17 Cloudy with Thunderstorms 57 13.9 53 11.7 87 87 N 17 28 29.91 1013 7 11 0.01 0.25
5:32 pm 17:32 Cloudy with Light Rain 57 13.9 53 11.7 87 87 NNW 14 22 29.94 1014 7 11 0.02 0.51
5:53 pm 17:53 Mostly Cloudy with Light Rain 57 13.9 53 11.7 87 87 VRB 3 6 29.90 1013 9 14 0.06 1.52
6:53 pm 18:53 Mostly Cloudy 59 15 55 12.8 87 87 N 12 19 29.91 1013 10 16 0.00 0.03
7:22 pm 19:22 Mostly Cloudy with Nearby Thunderstorms 58 14.4 54 12.2 87 87 NW 12 19 29.91 1013 10 16 0.00 0.00
7:37 pm 19:37 Mostly Cloudy with Light Rain 57 13.9 53 11.7 87 87 WNW 7 11 29.91 1013 10 16 0.00 0.03
7:53 pm 19:53 Mostly Cloudy with Light Rain 57 13.9 52 11.1 83 83 W 3 6 29.89 1012 10 16 0.00 0.03
8:53 pm 20:53 Mostly Clear 57 13.9 53 11.7 87 87 W 8 13 29.92 1013 10 16 0.00 0.03
9:53 pm 21:53 Clear 56 13.3 52 11.1 87 87 W 7 11 29.93 1014 10 16 0.00 0.00
10:53 pm 22:53 Clear 55 12.8 52 11.1 90 90 W 9 15 29.94 1014 10 16 0.00 0.00
11:53 pm 23:53 Partly Cloudy 55 12.8 52 11.1 90 90 W 9 15 29.94 1014 10 16 0.00 0.00

Powered by AerisWeather